Location: Unspecified
(50.0000°N, 15.0000°E)
Time: 04:16:36
(UTC+01:00)

ISS - Pass Details

Date: 02 December 2021
Orbit: 413 x 422 km, 51.6° (Epoch: 22 January)

Event Time Altitude Azimuth Distance (km) Brightness Sun altitude
Rises 17:48:57 0° 286° (WNW) 2,385 1.1 -16.6°
Reaches altitude 10° 17:51:04 10° 286° (WNW) 1,516 0.0 -16.9°
Maximum altitude 17:54:28 88° 204° (SSW) 429 -3.8 -17.5°
Enters shadow 17:55:18 49° 109° (ESE) 555 -3.6 -17.6°
